Location: ?????
(54.9266°N, 38.5527°E)
Time: 21:50:28
(UTC+00:00)

Cosmos 2297 - Visible Passes

Search period start: 12 July 2024 00:00
Search period end: 22 July 2024 00:00
Orbit: 835 x 858 km, 71.0° (Epoch: 12 July)

Date Brightness Start Highest point End Pass type
(mag) Time Alt. Az. Time Alt. Az. Time Alt. Az.
12 Jul 4.7 21:45:13 16° SSE 21:48:57 34° ESE 21:54:02 10° NE visible
12 Jul 4.1 23:27:12 10° SW 23:32:52 61° NW 23:38:33 10° NNE visible
13 Jul 4.7 21:31:48 17° SSE 21:35:22 33° ESE 21:40:25 10° NE visible
13 Jul 4.1 23:13:42 11° SW 23:19:16 62° NW 23:24:57 10° NNE visible
14 Jul 4.7 21:18:20 18° SSE 21:21:47 32° ESE 21:26:48 10° NE visible
14 Jul 4.1 23:00:14 11° SW 23:05:39 63° NW 23:11:21 10° NNE visible
15 Jul 4.7 21:04:51 18° SSE 21:08:12 32° ESE 21:13:11 10° NE visible
15 Jul 4.0 22:46:45 12° SW 22:52:02 64° NW 22:57:45 10° NNE visible
16 Jul 4.7 20:51:20 18° SSE 20:54:36 31° ESE 20:59:33 10° NE visible
16 Jul 4.0 22:33:13 13° SW 22:38:25 65° NW 22:44:08 10° NNE visible
17 Jul 4.7 20:37:46 18° SSE 20:41:01 30° ESE 20:45:55 10° NE visible
17 Jul 4.0 22:19:39 13° SW 22:24:49 66° NW 22:30:32 10° NNE visible
18 Jul 5.6 00:05:29 10° W 00:10:03 24° NNW 00:14:37 10° NNE visible
18 Jul 4.7 20:24:09 18° SSE 20:27:25 30° ESE 20:32:18 10° NE visible
18 Jul 4.0 22:06:02 13° SW 22:11:13 67° NW 22:16:56 10° NNE visible
18 Jul 5.6 23:51:50 10° W 23:56:26 24° NNW 00:01:01 10° NNE visible
19 Jul 4.7 20:10:31 17° SSE 20:13:50 29° ESE 20:18:41 10° NE visible
19 Jul 4.0 21:52:23 13° SW 21:57:36 69° NW 22:03:20 10° NNE visible
19 Jul 5.7 23:38:11 10° W 23:42:48 24° NNW 23:47:25 10° NNE visible
20 Jul 4.7 19:56:48 16° SSE 20:00:15 29° ESE 20:05:03 10° NE visible
20 Jul 4.0 21:38:40 12° SW 21:44:00 70° NW 21:49:44 10° NNE visible
20 Jul 5.7 23:24:33 10° W 23:29:11 25° NNW 23:33:49 10° NNE visible
21 Jul 4.8 19:43:02 15° SSE 19:46:40 28° ESE 19:51:26 10° NE visible
21 Jul 3.9 21:24:54 11° SW 21:30:24 71° NW 21:36:07 10° NNE visible
21 Jul 5.7 23:10:54 10° W 23:15:34 25° NNW 23:20:12 10° NNE visible
